Dewpoint
-7 -9 -11 -14 -15 -19 -21 -21 -21 -22 -23 -23 -23 -24 -25 -24 -27 -29 -30 -20 -7 -8 -10 -15 -8 -5 -2 -2 -1 -1 -1 0 -1 -2 -4 -6 -6 -7 -7 -7 -4 2 1 -0 5
-1 -2 -4 -8 -16 -18 -21 -23 -25 -25 -25 -25 -24 -26 -26 -21 -25 -33 -11 -8 -9 -9 -11 -11 -10 -6 -1 -0 0 1 1 -1 -3 -5 -5 -6 -6 -6 -7 -7 -7 1 4 -0 5
-1 -2 -4 -6 -9 -17 -21 -22 -23 -25 -26 -23 -21 -25 -27 -19 -19 -13 -6 -6 -6 -8 -6 -3 -7 -5 -2 -0 1 -0 1 -2 -3 -4 -4 -6 -6 -6 -7 -6 -7 -0 1 0 6
-4 -0 -3 -5 -9 -19 -23 -24 -24 -25 -25 -24 -19 -13 -19 -11 -24 -9 -8 -8 -6 -6 -7 1 2 -4 -8 -0 -0 0 -2 -2 -1 -2 -4 -5 -5 -6 -7 -7 -7 -8 -3 3 6
-6 0 -3 -7 -12 -21 -25 -27 -27 -26 -24 -19 -10 -8 -2 -4 -18 -28 -7 -7 -7 -6 -6 -4 2 -1 -6 -6 -2 1 -0 -1 -1 -1 -2 -4 -5 -5 -6 -6 -7 -9 3 4 4
-2 -4 -5 -8 -15 -21 -25 -27 -28 -27 -17 -3 -1 -4 2 1 -24 -12 -16 -12 -6 -6 -6 -6 -5 -6 -5 -3 -2 -2 -2 -1 -1 -1 -2 -3 -5 -7 -7 -7 -9 -6 6 4 3
-3 -1 -2 -5 -14 -23 -25 -28 -28 -22 -5 -3 -1 -3 3 -5 -14 -21 -13 -9 -7 -6 -6 -5 -7 -8 -9 -5 -3 -2 -1 -3 -3 -4 -5 -6 -6 -7 -8 -8 -9 0 6 5 3
-3 -5 -6 -9 -16 -23 -26 -28 -27 -17 -14 -5 -2 -2 2 -10 -10 -6 -6 -14 -10 -7 -6 -6 -6 -6 -9 -8 -3 -1 -2 0 -3 -5 -5 -7 -2 -7 -8 -9 -9 -1 7 5 4
-1 -2 -4 -10 -20 -24 -25 -19 -14 -7 -2 -2 -0 1 0 -4 -5 -5 -5 -4 -8 -10 -7 -7 -4 -5 -8 -5 -0 -0 2 0 -1 -5 -6 -7 -4 -6 -7 -7 -8 -8 5 5 4
-1 -2 -5 -12 -19 -22 -9 -14 -6 1 1 2 4 3 -3 -3 -3 -5 -5 -5 -3 -6 -6 -4 -3 -6 -8 -2 1 2 2 -0 -1 -3 -3 -2 -2 -4 -5 -5 -6 -7 -8 3 5
-3 -4 -5 -12 -17 -14 -3 -8 -2 0 -1 -1 -0 2 -1 -1 -2 -3 -5 -3 -3 -2 1 1 0 1 -4 -4 -2 -0 0 0 -1 -2 -2 -2 -2 -3 -4 -4 -6 -7 -7 -2 2
-5 -5 -6 -13 -16 -9 -0 1 -0 0 2 -1 -4 -4 -3 -1 0 -7 -5 -4 1 2 4 4 3 0 -2 -4 -5 -5 -2 0 -1 -2 -2 -2 -2 -4 -4 -5 -6 -6 -7 -6 1
-5 -6 -5 -12 -18 -6 -2 0 -0 1 2 -2 -4 -2 -2 -2 -1 -4 -8 -5 2 4 5 4 3 2 1 -0 -0 -2 -3 -1 0 -2 -2 -1 -1 -1 -3 -6 -6 -7 -7 -6 -4
-5 -5 -4 -11 -7 -13 -1 -0 -2 1 2 -2 -1 -2 -2 -2 -2 -9 -5 -2 1 3 4 5 4 4 5 4 2 2 -3 -1 -5 -3 2 -1 4 0 -1 -3 -5 -6 -4 -2 2
-5 -5 -5 -6 -6 -9 -6 -5 -4 2 -1 -8 -2 -4 -3 -4 -5 -4 -5 -4 2 3 4 3 5 6 5 4 2 2 4 4 3 3 2 1 3 1 -3 -2 -4 -5 -6 -6 -3
-6 -4 -5 -6 -8 -7 -8 -5 -1 2 -2 -5 -3 -2 -2 -3 -4 -6 -5 -6 -6 -2 3 2 3 3 3 3 2 2 4 4 4 3 5 1 2 3 1 -1 -3 -5 -6 -6 -6
-6 -4 -4 -6 -7 -8 -9 -3 -0 3 -8 -3 -4 -4 -1 -1 -2 -5 -5 -5 -4 -3 -3 -4 -1 2 3 4 3 4 7 7 6 6 5 2 3 1 -0 -2 -2 -3 -4 -5 -5
-6 -5 -6 -7 -7 -7 -5 -0 -0 -8 -3 -5 -5 -5 -1 -2 -2 -3 -4 -4 -6 -7 -4 -2 -3 1 3 3 4 3 7 8 8 8 7 3 5 1 1 -1 -1 -3 -4 -5 -5
-5 -5 -8 -8 -8 -5 -1 -0 -6 -5 -5 -4 -5 -3 -4 -5 -5 -1 -2 -3 -5 -7 -4 -2 0 -3 3 2 4 7 7 6 8 8 8 6 3 1 1 1 2 -2 -5 -5 -3
-4 -6 -9 -6 -6 -3 -3 -4 -3 -6 -7 -7 -2 -2 -2 -3 -3 -4 -1 0 3 -4 -6 -3 1 -3 -1 2 3 6 6 8 9 10 9 6 7 9 5 3 4 4 4 4 6
-5 -6 -7 -3 -5 -3 -3 -4 -4 -7 -6 -5 -2 -2 -3 -2 -4 -3 0 3 3 2 -3 1 -0 -1 -1 3 5 7 8 7 8 8 9 9 10 7 8 6 4 4 5 5 7
-4 -6 -6 -6 -2 -2 -3 -4 -5 -5 -6 -5 -4 -2 -2 -3 -2 -4 -2 0 -3 -1 3 0 4 6 4 -1 1 4 6 7 9 9 8 10 9 7 7 5 3 4 5 5 7
-3 -3 -7 -6 -6 -1 -3 -3 -4 -4 -5 -4 -4 -4 -3 -3 -0 -3 -4 -2 -3 -1 -2 -2 3 6 3 1 3 5 6 6 7 7 8 9 8 7 6 5 4 4 4 5 6
-4 -5 -7 -3 -4 -3 -3 -2 -3 -2 -2 -2 -3 -4 -3 -2 -3 -1 -2 -3 -3 -2 -2 -2 2 4 5 6 5 7 5 6 7 9 8 8 9 8 7 7 5 6 4 5 5
-3 -4 -4 -7 -2 -4 -4 -3 -1 -1 -2 -2 -2 -1 1 1 -2 -1 -2 -1 0 1 1 -1 1 4 3 3 3 4 5 6 8 7 9 5 5 6 7 7 6 6 3 4 3
-3 -4 -3 -3 -4 -3 -3 -2 -4 -3 -6 -0 -1 -0 -0 2 0 2 -1 -1 0 1 2 2 2 3 3 3 1 0 0 4 6 6 7 6 5 6 6 6 6 7 4 4 3
-3 -3 -4 -5 -5 -5 -6 -6 -3 -5 -6 -5 -3 0 1 -0 -0 1 1 0 0 -0 1 2 3 3 3 2 1 3 3 1 5 5 5 8 6 7 7 6 6 6 5 4 2
Wind_Speed
14 15 16 17 17 16 18 19 20 21 22 23 24 24 23 26 26 21 22 12 12 11 13 12 11 8 6 11 13 7 2 5 8 8 7 5 5 10 14 13 21 10 10 14 27
15 16 17 18 18 18 19 20 21 22 23 24 25 25 24 27 26 24 4 10 8 5 5 6 11 8 6 6 8 6 5 9 6 8 7 5 11 19 10 19 22 14 15 11 27
17 17 18 20 21 20 20 19 19 20 22 22 24 26 23 24 21 8 8 6 6 4 1 5 9 8 10 11 10 7 13 6 6 15 14 6 16 11 6 11 14 13 17 18 30
17 17 19 20 21 20 21 22 21 20 21 21 23 24 23 17 4 12 11 1 2 4 2 3 4 6 5 7 17 7 7 19 12 20 16 11 20 11 8 26 32 32 29 26 32
16 16 20 22 23 21 20 20 21 21 21 20 22 22 21 9 15 12 17 13 7 8 6 6 6 6 4 4 14 8 4 17 21 19 24 27 15 18 24 40 35 30 24 31 31
17 18 21 24 24 22 22 22 20 19 20 19 21 19 15 7 3 5 10 18 9 7 7 8 6 6 10 7 7 6 13 21 22 25 22 14 17 8 30 33 25 21 32 33 32
19 21 23 25 22 21 22 22 22 19 19 19 19 16 16 28 9 10 11 12 12 9 9 6 3 5 4 5 11 9 7 8 9 5 9 12 13 7 30 29 24 23 34 35 32
20 21 24 26 24 21 21 21 21 20 21 19 16 12 13 15 10 2 3 13 14 12 12 10 11 11 8 10 6 4 3 6 4 8 9 11 22 11 27 27 22 30 36 36 35
20 23 26 26 21 20 19 19 18 18 16 10 9 9 13 9 8 2 2 2 4 11 13 10 10 8 5 3 4 3 5 4 5 8 6 8 12 9 18 16 20 23 36 37 38
19 22 26 24 19 19 18 19 11 8 9 5 3 6 12 2 6 4 2 4 4 2 6 8 6 2 0 3 10 5 4 5 5 1 4 4 10 9 18 21 20 24 25 38 40
20 24 25 23 18 15 19 18 10 4 18 12 15 19 22 7 11 9 3 1 5 2 4 1 2 8 8 6 4 7 5 7 4 5 4 8 11 12 12 12 12 27 21 32 41
19 22 24 21 15 8 10 10 12 14 18 27 36 37 40 25 14 24 16 4 5 4 1 2 6 8 5 6 7 8 11 12 11 11 4 9 13 14 14 13 16 20 24 31 37
21 21 21 21 10 4 6 12 11 15 7 21 13 14 12 21 17 18 17 9 4 5 5 5 4 2 6 8 9 11 10 9 10 5 8 11 13 8 13 6 15 16 24 29 35
19 19 19 19 4 12 2 8 10 13 5 7 5 5 7 5 7 13 13 11 3 8 4 5 4 4 6 5 7 12 7 10 8 6 4 1 5 6 11 8 4 13 15 25 32
16 16 16 16 17 13 14 12 8 4 5 1 1 3 11 7 3 2 16 14 7 5 5 6 4 4 5 6 7 7 5 6 3 3 3 4 3 7 2 7 8 7 15 21 32
16 14 14 14 15 10 14 10 3 2 6 6 4 4 4 4 1 5 6 7 6 3 4 6 4 4 7 5 6 5 9 10 5 3 6 8 6 5 6 6 5 6 15 15 18
15 14 14 16 17 15 11 7 3 3 6 7 4 6 7 3 5 5 6 7 5 3 5 4 11 5 4 3 6 9 4 3 5 4 6 7 8 11 9 9 8 11 20 20 15
12 14 15 17 19 11 2 2 3 2 6 7 7 12 7 6 6 6 6 4 6 2 1 3 5 9 7 12 5 13 6 3 4 3 2 5 5 3 6 7 17 24 30 33 20
13 15 17 15 4 4 4 3 5 4 4 9 11 4 6 6 3 4 8 5 6 11 7 3 4 2 6 5 7 4 11 2 1 4 2 3 5 2 17 17 19 14 19 24 18
13 15 13 10 7 7 3 5 4 4 8 5 3 4 4 11 7 7 7 2 4 7 3 2 4 2 3 6 6 4 3 4 2 3 3 4 2 3 13 16 16 15 9 4 12
9 6 3 6 8 6 4 4 4 12 14 4 4 5 5 9 9 3 4 3 1 3 8 3 2 6 4 5 7 3 3 2 2 2 2 1 2 1 10 12 11 12 19 20 13
2 2 4 5 1 4 5 3 2 7 7 5 5 7 9 4 7 2 4 4 4 4 4 1 2 3 7 7 11 10 7 4 2 4 2 1 3 4 9 13 10 15 23 30 27
2 6 7 6 2 2 5 6 11 13 16 5 5 6 5 2 5 9 6 5 4 1 4 3 1 3 7 4 5 3 10 9 6 1 4 3 2 5 7 12 21 18 23 28 30
2 2 2 4 3 3 4 7 6 10 11 8 9 11 12 6 3 9 5 4 14 2 6 3 2 2 2 3 2 6 11 7 8 2 2 4 0 3 5 10 14 21 18 26 29
6 3 3 2 1 2 4 5 7 4 7 8 5 3 4 4 3 10 4 2 3 3 3 3 2 1 6 7 8 11 12 11 8 6 4 3 8 9 10 6 8 15 12 22 26
5 3 2 3 6 3 5 2 8 6 6 6 5 13 5 5 4 10 2 2 2 3 2 2 1 2 4 4 8 10 11 11 13 11 11 16 12 5 13 13 6 8 12 20 18
8 6 2 2 1 2 2 5 9 13 8 11 10 10 8 11 13 14 10 6 4 2 1 2 3 2 4 6 10 7 0 6 5 11 6 11 8 8 14 14 15 16 13 15 15
Wind_Direction
321 319 318 314 313 314 311 310 310 311 311 313 314 314 315 312 313 308 300 299 283 221 228 234 237 235 221 214 207 210 225 211 202 192 236 291 356 278 320 342 332 210 210 218 184
322 323 320 319 317 315 313 311 310 311 311 313 316 314 318 322 320 312 110 102 113 166 206 219 237 221 206 221 207 184 208 216 211 226 258 318 315 305 335 319 317 271 204 203 192
315 315 318 318 318 315 310 310 310 309 311 318 319 317 321 331 323 135 121 121 128 144 270 270 259 232 220 223 207 215 237 224 227 248 269 286 283 302 296 296 282 285 234 202 192
314 312 313 318 319 315 315 313 311 311 313 315 315 318 325 331 302 177 202 190 300 241 249 296 248 196 199 215 224 258 233 237 261 259 270 265 283 283 247 270 286 294 273 201 192
320 309 312 319 321 317 312 311 312 313 313 315 313 316 323 299 268 248 230 240 298 252 251 271 213 202 201 225 234 244 269 263 264 268 265 271 253 259 282 283 291 291 234 196 197
323 322 314 317 320 319 314 314 310 310 307 308 303 304 304 279 247 254 234 231 238 228 255 278 250 273 267 239 221 253 243 251 258 262 266 266 268 248 271 278 290 268 202 198 202
321 324 323 322 323 318 316 312 309 309 297 297 299 283 272 271 271 247 249 226 221 228 245 239 241 274 290 280 238 246 255 266 250 227 244 260 279 208 265 280 272 230 211 204 205
324 322 322 326 330 321 318 316 314 306 291 291 285 261 259 287 257 239 242 248 234 231 240 249 268 269 240 271 294 267 238 250 235 213 249 194 268 270 277 263 244 223 213 208 210
324 328 329 331 332 323 324 322 321 303 308 294 253 245 266 268 224 130 54 290 249 225 238 255 258 230 266 239 317 279 248 263 286 216 222 186 267 263 279 281 253 227 217 213 216
321 325 328 336 334 328 329 329 319 305 330 328 271 272 259 225 188 184 305 292 251 232 230 241 203 200 342 144 239 237 258 245 233 311 12 276 269 271 285 288 266 268 221 215 217
316 322 328 341 335 338 340 354 6 323 311 268 265 255 270 287 255 231 313 310 223 179 174 161 161 221 221 215 250 257 253 259 256 265 296 259 269 275 292 275 260 255 243 212 219
321 320 321 336 335 346 12 65 25 318 297 289 273 260 257 254 284 253 258 221 172 193 145 17 240 243 238 239 261 274 265 266 274 274 258 281 282 287 285 261 246 261 250 226 218
328 325 326 338 339 345 17 27 350 335 272 298 259 252 256 217 232 259 237 195 166 169 198 188 220 335 229 230 241 252 254 253 260 298 268 279 280 285 276 252 294 293 260 241 223
335 334 333 349 5 348 355 321 324 335 307 278 265 259 168 180 229 220 186 169 197 197 195 241 249 247 259 246 226 249 235 266 270 278 254 93 286 260 281 290 281 276 237 227 213
331 337 334 348 332 347 317 328 327 341 321 225 211 198 175 182 152 220 204 199 185 184 140 244 194 209 217 231 232 261 359 289 279 270 220 255 253 270 231 289 280 247 256 234 223
324 327 333 331 331 349 311 329 340 60 255 313 154 194 161 238 275 121 158 196 215 190 247 241 220 213 209 217 227 268 299 279 250 215 245 224 206 235 227 229 273 258 252 217 223
315 316 322 320 323 327 312 335 71 188 334 335 4 347 277 213 205 175 166 185 176 164 240 279 238 214 165 188 186 218 266 242 224 228 234 195 208 254 303 282 257 272 280 272 234
310 311 314 313 317 307 307 65 187 231 279 355 339 300 210 195 235 189 137 193 234 155 151 214 319 164 190 204 184 202 201 223 220 231 182 264 248 214 358 347 320 265 265 275 251
314 317 316 347 260 223 137 194 216 212 327 340 323 343 346 13 8 171 194 197 208 174 189 206 255 143 174 145 135 175 210 357 317 316 25 243 270 206 0 360 352 303 267 273 266
321 332 333 334 177 152 177 240 253 320 5 338 312 17 324 339 355 348 177 212 153 193 194 230 295 278 196 119 166 167 137 179 180 224 215 231 98 12 2 357 358 355 350 327 185
335 329 323 347 173 190 228 239 315 323 348 316 342 313 340 345 319 287 346 354 197 186 143 207 170 288 127 188 173 204 180 186 227 228 229 179 166 36 4 3 359 3 29 57 124
342 347 227 350 315 196 230 258 245 290 310 289 284 272 255 334 295 359 301 169 252 182 155 156 84 277 245 238 184 186 196 176 211 173 191 46 266 57 5 10 6 30 36 56 82
291 273 290 267 169 261 305 283 283 265 269 265 289 308 11 17 315 286 311 347 27 168 166 173 124 319 317 36 43 151 181 195 214 52 231 177 235 14 13 3 20 29 44 58 66
245 320 304 180 240 162 271 268 255 292 296 298 286 275 286 271 232 292 313 3 323 335 76 75 85 116 241 292 245 314 341 274 212 196 172 219 227 87 322 348 4 4 49 64 63
202 221 250 278 225 298 265 303 292 297 283 241 289 323 348 269 294 271 276 324 17 58 51 84 124 353 280 278 278 267 254 256 262 247 232 267 226 196 177 142 337 356 48 70 68
204 191 203 293 309 12 4 286 307 347 321 296 286 329 303 272 264 285 255 314 273 337 82 23 140 42 280 316 330 291 250 243 219 247 274 255 268 132 141 135 150 20 56 57 50
227 190 242 249 17 353 259 280 298 315 295 322 315 310 287 263 276 281 289 287 272 325 103 108 116 70 279 341 326 297 359 294 211 194 174 245 254 143 166 155 154 116 104 84 64
Height
1511 1510 1507 1505 1503 1500 1497 1494 1491 1488 1485 1483 1481 1477 1474 1471 1467 1466 1462 1461 1461 1461 1463 1465 1466 1467 1469 1469 1470 1471 1478 1480 1471 1468 1459 1455 1457 1452 1454 1454 1454 1450 1447 1447 1448
1510 1507 1506 1503 1500 1498 1495 1492 1490 1487 1483 1480 1478 1475 1472 1468 1462 1458 1459 1458 1458 1460 1461 1462 1465 1466 1467 1466 1467 1467 1472 1465 1458 1456 1455 1455 1456 1452 1453 1451 1450 1451 1447 1445 1447
1510 1506 1504 1501 1499 1495 1493 1489 1486 1483 1480 1478 1475 1472 1469 1466 1461 1456 1456 1457 1457 1458 1459 1460 1462 1464 1465 1464 1462 1458 1452 1453 1452 1452 1455 1453 1452 1454 1452 1450 1449 1451 1446 1444 1445
1508 1505 1502 1499 1496 1493 1491 1488 1484 1480 1478 1475 1472 1468 1466 1466 1465 1455 1454 1455 1456 1456 1458 1459 1459 1463 1462 1461 1458 1460 1450 1451 1450 1452 1454 1452 1451 1447 1449 1445 1445 1447 1446 1441 1443
1505 1503 1499 1496 1493 1490 1487 1483 1480 1478 1474 1472 1470 1467 1464 1463 1454 1453 1452 1453 1455 1455 1456 1458 1458 1459 1458 1456 1455 1453 1449 1448 1447 1449 1449 1448 1446 1445 1441 1439 1441 1441 1438 1438 1439
1504 1501 1498 1493 1490 1486 1482 1480 1476 1474 1470 1469 1468 1466 1466 1463 1449 1448 1448 1451 1453 1453 1454 1456 1454 1456 1455 1454 1453 1445 1444 1442 1442 1442 1445 1445 1439 1444 1435 1434 1436 1435 1435 1434 1435
1502 1499 1495 1491 1486 1482 1479 1476 1473 1470 1466 1465 1464 1462 1460 1449 1446 1445 1446 1447 1450 1450 1450 1454 1454 1457 1455 1452 1447 1443 1443 1439 1438 1437 1438 1440 1438 1438 1430 1431 1431 1431 1432 1431 1432
1499 1496 1492 1488 1484 1479 1475 1471 1469 1466 1462 1461 1460 1458 1450 1445 1444 1444 1443 1444 1447 1447 1448 1451 1453 1454 1454 1448 1445 1443 1439 1445 1433 1434 1433 1438 1434 1426 1426 1424 1424 1425 1427 1427 1428
1496 1494 1489 1486 1481 1476 1472 1468 1465 1461 1459 1457 1457 1457 1445 1442 1442 1442 1442 1444 1444 1444 1446 1448 1451 1451 1451 1450 1452 1445 1449 1442 1437 1428 1431 1432 1430 1420 1420 1420 1418 1420 1421 1421 1423
1494 1491 1486 1483 1479 1474 1470 1466 1462 1460 1458 1455 1455 1459 1443 1441 1440 1441 1442 1443 1443 1442 1443 1446 1447 1449 1450 1453 1453 1451 1445 1441 1437 1429 1428 1432 1428 1416 1415 1415 1411 1413 1415 1418 1418
1492 1489 1485 1482 1478 1474 1470 1465 1465 1462 1458 1456 1452 1448 1440 1440 1439 1439 1439 1440 1441 1440 1443 1443 1449 1449 1446 1445 1444 1442 1441 1441 1434 1427 1431 1429 1425 1414 1410 1409 1406 1407 1404 1410 1412
1490 1486 1483 1480 1476 1475 1474 1472 1478 1479 1456 1447 1439 1436 1433 1440 1437 1434 1438 1441 1441 1444 1443 1445 1446 1442 1441 1442 1443 1442 1440 1434 1427 1424 1425 1425 1421 1408 1404 1404 1401 1397 1395 1400 1404
1487 1484 1481 1478 1475 1477 1475 1476 1475 1474 1467 1435 1431 1427 1425 1430 1433 1426 1433 1435 1438 1443 1443 1445 1439 1437 1438 1438 1440 1439 1439 1434 1431 1427 1424 1423 1416 1406 1395 1395 1393 1390 1389 1391 1393
1486 1484 1479 1477 1477 1476 1476 1475 1474 1471 1468 1438 1429 1424 1426 1426 1429 1423 1428 1432 1437 1440 1442 1443 1436 1436 1437 1437 1435 1437 1431 1429 1427 1431 1438 1418 1431 1407 1397 1392 1387 1387 1388 1387 1390
1486 1483 1482 1479 1479 1477 1477 1475 1473 1473 1471 1428 1426 1425 1424 1426 1424 1424 1426 1431 1434 1436 1442 1438 1436 1437 1437 1433 1430 1430 1428 1429 1426 1428 1428 1422 1429 1404 1393 1393 1387 1385 1385 1386 1386
1485 1482 1481 1481 1479 1477 1474 1474 1473 1477 1466 1432 1424 1427 1427 1424 1423 1424 1427 1430 1432 1435 1436 1434 1431 1431 1429 1426 1426 1429 1430 1428 1426 1428 1434 1419 1421 1405 1395 1388 1380 1378 1379 1379 1379
1482 1481 1480 1479 1478 1476 1474 1475 1480 1478 1442 1436 1433 1431 1427 1423 1423 1423 1426 1430 1435 1441 1441 1431 1426 1424 1425 1427 1426 1430 1438 1437 1436 1435 1423 1405 1412 1394 1387 1383 1379 1375 1372 1374 1375
1480 1479 1478 1477 1476 1475 1475 1478 1482 1454 1448 1440 1437 1430 1425 1420 1420 1420 1426 1431 1430 1431 1436 1434 1431 1422 1418 1421 1424 1424 1434 1433 1427 1422 1419 1404 1406 1392 1381 1378 1374 1368 1365 1364 1369
1478 1477 1474 1474 1472 1474 1477 1481 1463 1457 1451 1449 1438 1431 1428 1423 1424 1420 1424 1425 1423 1426 1434 1431 1423 1413 1414 1414 1421 1427 1429 1431 1428 1424 1426 1411 1392 1379 1380 1378 1373 1366 1361 1358 1358
1477 1475 1472 1472 1472 1475 1478 1472 1466 1458 1457 1453 1450 1442 1440 1435 1429 1427 1421 1416 1419 1420 1421 1421 1425 1412 1410 1416 1422 1427 1425 1429 1427 1422 1424 1404 1398 1406 1394 1388 1383 1376 1367 1360 1361
1477 1474 1472 1472 1474 1477 1476 1472 1465 1461 1460 1456 1452 1448 1439 1442 1434 1427 1418 1419 1418 1418 1419 1420 1420 1419 1412 1416 1416 1426 1422 1426 1422 1420 1416 1413 1410 1401 1402 1396 1391 1386 1375 1365 1366
1476 1477 1473 1474 1477 1474 1474 1469 1467 1463 1462 1459 1453 1450 1447 1445 1438 1427 1425 1417 1416 1416 1421 1422 1423 1426 1416 1404 1404 1409 1417 1420 1419 1419 1417 1416 1411 1401 1402 1398 1395 1391 1385 1375 1375
1476 1475 1472 1473 1480 1471 1470 1467 1467 1464 1462 1458 1453 1448 1444 1444 1451 1430 1424 1415 1416 1417 1419 1419 1424 1428 1414 1407 1406 1412 1414 1418 1418 1417 1413 1415 1409 1402 1402 1402 1401 1397 1395 1391 1389
1477 1476 1471 1471 1470 1470 1472 1466 1465 1460 1457 1455 1452 1449 1447 1443 1440 1438 1428 1419 1419 1417 1417 1417 1424 1428 1433 1425 1424 1421 1417 1411 1413 1415 1413 1412 1403 1404 1406 1408 1408 1406 1406 1402 1399
1474 1473 1473 1478 1470 1469 1468 1466 1461 1458 1454 1453 1450 1448 1449 1444 1437 1441 1426 1423 1421 1419 1419 1422 1427 1428 1426 1423 1421 1418 1416 1413 1415 1413 1413 1403 1402 1397 1406 1412 1415 1414 1412 1407 1407
1471 1471 1472 1471 1469 1468 1466 1463 1460 1462 1457 1450 1448 1447 1446 1444 1439 1438 1427 1424 1421 1421 1422 1424 1431 1431 1429 1419 1419 1415 1408 1404 1406 1409 1411 1407 1401 1397 1405 1410 1415 1418 1415 1412 1414
1468 1468 1470 1469 1469 1470 1466 1462 1461 1460 1451 1448 1447 1448 1443 1437 1435 1432 1428 1425 1426 1423 1424 1426 1430 1434 1429 1424 1422 1416 1403 1399 1396 1401 1401 1403 1397 1399 1404 1405 1412 1419 1419 1420 1421